| time (UTC) | temp F | wind direction | speed MPH | gust MPH | rain 1hr in | rain 24hr in | rain mn in | humidity % | barometer mb |
| 20260510001841 | 81 | 243 | 1.0 | 4.0 | 0.00 | 0.00 | 0.00 | 32 | 1016.8 |
| 20260510001338 | 81 | 262 | 1.0 | 4.0 | 0.00 | 0.00 | 0.00 | 31 | 1016.9 |
| 20260510000839 | 82 | 265 | 1.0 | 3.0 | 0.00 | 0.00 | 0.00 | 32 | 1017.0 |
| 20260510000334 | 80 | 221 | 0.0 | 5.0 | 0.00 | 0.00 | 0.00 | 33 | 1016.9 |
| 20260509235832 | 80 | 20 | 3.0 | 5.0 | 0.00 | 0.00 | 0.00 | 34 | 1017.0 |
| 20260509235348 | 80 | 37 | 0.0 | 5.0 | 0.00 | 0.00 | 0.00 | 34 | 1017.0 |
| 20260509234844 | 79 | 261 | 0.0 | 7.0 | 0.00 | 0.00 | 0.00 | 34 | 1017.1 |
| 20260509234405 | 79 | 340 | 3.0 | 7.0 | 0.00 | 0.00 | 0.00 | 35 | 1017.1 |
| 20260509233842 | 79 | 32 | 1.0 | 5.0 | 0.00 | 0.00 | 0.00 | 36 | 1017.0 |
| 20260509233409 | 79 | 19 | 2.0 | 7.0 | 0.00 | 0.00 | 0.00 | 34 | 1017.2 |
| 20260509232841 | 79 | 37 | 4.0 | 7.0 | 0.00 | 0.00 | 0.00 | 35 | 1017.1 |
| 20260509232359 | 79 | 102 | 2.0 | 5.0 | 0.00 | 0.00 | 0.00 | 33 | 1017.2 |
| 20260509231902 | 81 | 41 | 3.0 | 5.0 | 0.00 | 0.00 | 0.00 | 32 | 1017.2 |
| 20260509231337 | 81 | 105 | 3.0 | 4.0 | 0.00 | 0.00 | 0.00 | 32 | 1017.2 |
| 20260509230835 | 81 | 256 | 1.0 | 3.0 | 0.00 | 0.00 | 0.00 | 32 | 1017.3 |
| 20260509230332 | 82 | 255 | 1.0 | 3.0 | 0.00 | 0.00 | 0.00 | 29 | 1017.4 |
| 20260509225848 | 80 | 226 | 0.0 | 3.0 | 0.00 | 0.00 | 0.00 | 33 | 1017.6 |
| 20260509225353 | 80 | 276 | 0.0 | 3.0 | 0.00 | 0.00 | 0.00 | 36 | 1017.7 |
| 20260509224850 | 80 | 263 | 2.0 | 4.0 | 0.00 | 0.00 | 0.00 | 35 | 1017.8 |
| 20260509224343 | 79 | 213 | 2.0 | 3.0 | 0.00 | 0.00 | 0.00 | 35 | 1017.8 |
| 20260509223840 | 79 | 255 | 0.0 | 3.0 | 0.00 | 0.00 | 0.00 | 35 | 1017.9 |
| 20260509223337 | 79 | 333 | 1.0 | 4.0 | 0.00 | 0.00 | 0.00 | 38 | 1018.1 |
| 20260509222841 | 79 | 212 | 1.0 | 5.0 | 0.00 | 0.00 | 0.00 | 36 | 1018.2 |
| 20260509222339 | 79 | 37 | 2.0 | 6.0 | 0.00 | 0.00 | 0.00 | 38 | 1018.4 |
| 20260509221830 | 78 | 249 | 4.0 | 6.0 | 0.00 | 0.00 | 0.00 | 38 | 1018.4 |
| 20260509221356 | 78 | 248 | 1.0 | 6.0 | 0.00 | 0.00 | 0.00 | 42 | 1018.4 |
| 20260509220832 | 78 | 245 | 2.0 | 6.0 | 0.00 | 0.00 | 0.00 | 41 | 1018.4 |
| 20260509220349 | 78 | 238 | 2.0 | 5.0 | 0.00 | 0.00 | 0.00 | 40 | 1018.5 |
| 20260509215849 | 78 | 84 | 0.0 | 4.0 | 0.00 | 0.00 | 0.00 | 43 | 1018.7 |
| 20260509215347 | 78 | 42 | 0.0 | 4.0 | 0.00 | 0.00 | 0.00 | 44 | 1018.7 |
| 20260509214845 | 77 | 286 | 1.0 | 7.0 | 0.00 | 0.00 | 0.00 | 43 | 1018.8 |
| 20260509214402 | 76 | 274 | 5.0 | 7.0 | 0.00 | 0.00 | 0.00 | 43 | 1018.8 |
| 20260509213839 | 76 | 257 | 2.0 | 7.0 | 0.00 | 0.00 | 0.00 | 44 | 1018.9 |
| 20260509213337 | 78 | 255 | 1.0 | 4.0 | 0.00 | 0.00 | 0.00 | 46 | 1019.0 |
| 20260509212854 | 77 | 275 | 1.0 | 4.0 | 0.00 | 0.00 | 0.00 | 45 | 1019.0 |
| 20260509212358 | 76 | 170 | 1.0 | 3.0 | 0.00 | 0.00 | 0.00 | 46 | 1019.1 |
| 20260509211835 | 77 | 278 | 0.0 | 3.0 | 0.00 | 0.00 | 0.00 | 46 | 1019.0 |
| 20260509211332 | 77 | 325 | 1.0 | 5.0 | 0.00 | 0.00 | 0.00 | 45 | 1019.1 |
| 20260509210844 | 76 | 271 | 3.0 | 5.0 | 0.00 | 0.00 | 0.00 | 46 | 1019.0 |
| 20260509210341 | 76 | 276 | 1.0 | 5.0 | 0.00 | 0.00 | 0.00 | 48 | 1018.9 |
| 20260509205846 | 76 | 300 | 2.0 | 5.0 | 0.00 | 0.00 | 0.00 | 46 | 1018.9 |
| 20260509205344 | 77 | 72 | 3.0 | 5.0 | 0.00 | 0.00 | 0.00 | 45 | 1019.0 |
| 20260509204842 | 78 | 84 | 2.0 | 4.0 | 0.00 | 0.00 | 0.00 | 44 | 1019.1 |
| 20260509204340 | 77 | 293 | 1.0 | 6.0 | 0.00 | 0.00 | 0.00 | 47 | 1019.0 |
| 20260509203838 | 76 | 277 | 2.0 | 6.0 | 0.00 | 0.00 | 0.00 | 47 | 1019.1 |
| 20260509203335 | 76 | 43 | 2.0 | 5.0 | 0.00 | 0.00 | 0.00 | 49 | 1019.2 |
| 20260509202832 | 75 | 273 | 1.0 | 5.0 | 0.00 | 0.00 | 0.00 | 48 | 1019.3 |
| 20260509202345 | 76 | 96 | 2.0 | 5.0 | 0.00 | 0.00 | 0.00 | 47 | 1019.2 |
| 20260509201850 | 76 | 261 | 1.0 | 5.0 | 0.00 | 0.00 | 0.00 | 48 | 1019.3 |
| 20260509201348 | 75 | 55 | 1.0 | 6.0 | 0.00 | 0.00 | 0.00 | 49 | 1019.5 |
| 20260509200845 | 74 | 79 | 1.0 | 6.0 | 0.00 | 0.00 | 0.00 | 50 | 1019.6 |
| 20260509200342 | 74 | 270 | 1.0 | 7.0 | 0.00 | 0.00 | 0.00 | 49 | 1019.6 |
| 20260509195832 | 73 | 251 | 1.0 | 7.0 | 0.00 | 0.00 | 0.00 | 51 | 1019.7 |
| 20260509195357 | 73 | 281 | 3.0 | 7.0 | 0.00 | 0.00 | 0.00 | 50 | 1019.8 |
| 20260509194834 | 74 | 283 | 1.0 | 6.0 | 0.00 | 0.00 | 0.00 | 49 | 1019.9 |
| 20260509194330 | 75 | 22 | 3.0 | 6.0 | 0.00 | 0.00 | 0.00 | 49 | 1019.8 |
| 20260509193848 | 74 | 22 | 1.0 | 5.0 | 0.00 | 0.00 | 0.00 | 51 | 1020.0 |
| 20260509193346 | 73 | 120 | 1.0 | 7.0 | 0.00 | 0.00 | 0.00 | 50 | 1020.0 |
| 20260509192900 | 73 | 180 | 0.0 | 7.0 | 0.00 | 0.00 | 0.00 | 51 | 1020.1 |
| 20260509192337 | 73 | 39 | 3.0 | 6.0 | 0.00 | 0.00 | 0.00 | 50 | 1020.1 |
| 20260509191851 | 73 | 107 | 1.0 | 7.0 | 0.00 | 0.00 | 0.00 | 50 | 1020.3 |
| 20260509191348 | 71 | 259 | 1.0 | 7.0 | 0.00 | 0.00 | 0.00 | 53 | 1020.3 |
| 20260509190845 | 71 | 75 | 2.0 | 6.0 | 0.00 | 0.00 | 0.00 | 51 | 1020.3 |
| 20260509190343 | 71 | 48 | 3.0 | 6.0 | 0.00 | 0.00 | 0.00 | 53 | 1020.4 |
| 20260509185842 | 72 | 275 | 1.0 | 6.0 | 0.00 | 0.00 | 0.00 | 54 | 1020.4 |
| 20260509185340 | 71 | 81 | 2.0 | 5.0 | 0.00 | 0.00 | 0.00 | 55 | 1020.5 |
| 20260509184837 | 71 | 33 | 2.0 | 6.0 | 0.00 | 0.00 | 0.00 | 55 | 1020.5 |
| 20260509184332 | 71 | 23 | 0.0 | 4.0 | 0.00 | 0.00 | 0.00 | 56 | 1020.7 |
| 20260509183919 | 70 | 281 | 2.0 | 6.0 | 0.00 | 0.00 | 0.00 | 57 | 1020.8 |
| 20260509183353 | 70 | 266 | 2.0 | 6.0 | 0.00 | 0.00 | 0.00 | 57 | 1020.8 |
| 20260509182849 | 70 | 34 | 1.0 | 5.0 | 0.00 | 0.00 | 0.00 | 58 | 1021.0 |
| 20260509182346 | 69 | 39 | 2.0 | 9.0 | 0.00 | 0.00 | 0.00 | 58 | 1020.9 |
| 20260509181844 | 68 | 91 | 3.0 | 9.0 | 0.00 | 0.00 | 0.00 | 59 | 1021.0 |
| 20260509181343 | 67 | 78 | 4.0 | 8.0 | 0.00 | 0.00 | 0.00 | 59 | 1021.0 |
| 20260509180839 | 67 | 46 | 3.0 | 9.0 | 0.00 | 0.00 | 0.00 | 61 | 1021.0 |
| 20260509180336 | 68 | 41 | 2.0 | 7.0 | 0.00 | 0.00 | 0.00 | 60 | 1021.0 |
| 20260509175850 | 66 | 78 | 1.0 | 7.0 | 0.00 | 0.00 | 0.00 | 63 | 1021.0 |
| 20260509175346 | 67 | 38 | 4.0 | 7.0 | 0.00 | 0.00 | 0.00 | 61 | 1021.1 |
| 20260509174912 | 67 | 69 | 1.0 | 4.0 | 0.00 | 0.00 | 0.00 | 62 | 1021.1 |
| 20260509174347 | 68 | 76 | 1.0 | 4.0 | 0.00 | 0.00 | 0.00 | 62 | 1021.3 |
| 20260509173905 | 67 | 148 | 0.0 | 4.0 | 0.00 | 0.00 | 0.00 | 64 | 1021.3 |
| 20260509173344 | 67 | 49 | 1.0 | 3.0 | 0.00 | 0.00 | 0.00 | 65 | 1021.3 |
| 20260509172842 | 66 | 287 | 0.0 | 4.0 | 0.00 | 0.00 | 0.00 | 68 | 1021.4 |
| 20260509171846 | 66 | 71 | 1.0 | 4.0 | 0.00 | 0.00 | 0.00 | 65 | 1021.5 |
| 20260509171343 | 65 | 78 | 0.0 | 5.0 | 0.00 | 0.00 | 0.00 | 70 | 1021.6 |
| 20260509170837 | 64 | 256 | 2.0 | 5.0 | 0.00 | 0.00 | 0.00 | 69 | 1021.7 |
| 20260509170357 | 63 | 107 | 1.0 | 4.0 | 0.00 | 0.00 | 0.00 | 69 | 1021.8 |
| 20260509165849 | 64 | 56 | 2.0 | 4.0 | 0.00 | 0.00 | 0.00 | 68 | 1021.7 |
| 20260509165345 | 65 | 77 | 1.0 | 2.0 | 0.00 | 0.00 | 0.00 | 68 | 1021.8 |
| 20260509164841 | 64 | 293 | 1.0 | 3.0 | 0.00 | 0.00 | 0.00 | 68 | 1022.0 |
| 20260509164331 | 64 | 84 | 0.0 | 2.0 | 0.00 | 0.00 | 0.00 | 69 | 1022.1 |
| 20260509163857 | 63 | 236 | 1.0 | 2.0 | 0.00 | 0.00 | 0.00 | 69 | 1022.2 |
| 20260509163354 | 63 | 127 | 0.0 | 3.0 | 0.00 | 0.00 | 0.00 | 71 | 1022.3 |
| 20260509162831 | 62 | 304 | 1.0 | 3.0 | 0.00 | 0.00 | 0.00 | 72 | 1022.4 |
| 20260509162347 | 62 | 68 | 1.0 | 2.0 | 0.00 | 0.00 | 0.00 | 72 | 1022.4 |
| 20260509161838 | 62 | 274 | 0.0 | 1.0 | 0.00 | 0.00 | 0.00 | 72 | 1022.4 |
| 20260509161405 | 62 | 75 | 0.0 | 2.0 | 0.00 | 0.00 | 0.00 | 72 | 1022.4 |
| 20260509160841 | 61 | 74 | 1.0 | 4.0 | 0.00 | 0.00 | 0.00 | 75 | 1022.6 |
| 20260509160337 | 60 | 288 | 2.0 | 4.0 | 0.00 | 0.00 | 0.00 | 75 | 1022.6 |
| 20260509155856 | 60 | 77 | 1.0 | 3.0 | 0.00 | 0.00 | 0.00 | 75 | 1022.5 |
| 20260509155332 | 59 | 252 | 0.0 | 1.0 | 0.00 | 0.00 | 0.00 | 80 | 1022.4 |
| 20260509154831 | 58 | 270 | 0.0 | 1.0 | 0.00 | 0.00 | 0.00 | 78 | 1022.5 |
| 20260509154346 | 58 | 232 | 0.0 | 1.0 | 0.00 | 0.00 | 0.00 | 79 | 1022.5 |
| 20260509153911 | 57 | 245 | 0.0 | 3.0 | 0.00 | 0.00 | 0.00 | 79 | 1022.5 |
| 20260509153342 | 57 | 193 | 0.0 | 3.0 | 0.00 | 0.00 | 0.00 | 79 | 1022.7 |
| 20260509152910 | 57 | 240 | 0.0 | 2.0 | 0.00 | 0.00 | 0.00 | 81 | 1022.8 |
| 20260509152343 | 57 | 225 | 0.0 | 2.0 | 0.00 | 0.00 | 0.00 | 79 | 1022.9 |
| 20260509151842 | 57 | 236 | 0.0 | 1.0 | 0.00 | 0.00 | 0.00 | 79 | 1022.8 |
| 20260509151341 | 56 | 165 | 0.0 | 2.0 | 0.00 | 0.00 | 0.00 | 81 | 1023.0 |
| 20260509150831 | 56 | 206 | 1.0 | 2.0 | 0.00 | 0.00 | 0.00 | 80 | 1023.1 |
| 20260509150336 | 56 | 252 | 0.0 | 0.0 | 0.00 | 0.00 | 0.00 | 81 | 1023.1 |
| 20260509145834 | 55 | 257 | 0.0 | 0.0 | 0.00 | 0.00 | 0.00 | 81 | 1023.0 |
| 20260509145332 | 56 | 226 | 0.0 | 0.0 | 0.00 | 0.00 | 0.00 | 78 | 1023.0 |
| 20260509144843 | 57 | 114 | 0.0 | 0.0 | 0.00 | 0.00 | 0.00 | 79 | 1023.0 |
| 20260509144340 | 56 | 113 | 0.0 | 1.0 | 0.00 | 0.00 | 0.00 | 81 | 1022.9 |
| 20260509143858 | 56 | 117 | 0.0 | 1.0 | 0.00 | 0.00 | 0.00 | 82 | 1022.9 |
| 20260509143357 | 55 | 122 | 0.0 | 1.0 | 0.00 | 0.00 | 0.00 | 82 | 1022.9 |
| 20260509142853 | 53 | 124 | 0.0 | 1.0 | 0.00 | 0.00 | 0.00 | 85 | 1023.0 |
| 20260509142350 | 52 | 87 | 0.0 | 1.0 | 0.00 | 0.00 | 0.00 | 83 | 1023.1 |
| 20260509141848 | 53 | 87 | 0.0 | 0.0 | 0.00 | 0.00 | 0.00 | 81 | 1023.0 |
| 20260509141345 | 53 | 87 | 0.0 | 1.0 | 0.00 | 0.00 | 0.00 | 85 | 1023.0 |
| 20260509140912 | 52 | 87 | 0.0 | 1.0 | 0.00 | 0.00 | 0.00 | 86 | 1022.9 |
| 20260509140344 | 52 | 149 | 0.0 | 0.0 | 0.00 | 0.00 | 0.00 | 85 | 1022.9 |
| 20260509135841 | 52 | 153 | 0.0 | 0.0 | 0.00 | 0.00 | 0.00 | 86 | 1022.9 |
| 20260509135337 | 51 | 153 | 0.0 | 0.0 | 0.00 | 0.00 | 0.00 | 88 | 1022.9 |
| 20260509134835 | 50 | 153 | 0.0 | 0.0 | 0.00 | 0.00 | 0.00 | 89 | 1022.9 |
| 20260509134357 | 49 | 153 | 0.0 | 0.0 | 0.00 | 0.00 | 0.00 | 90 | 1022.8 |
| 20260509133851 | 49 | 153 | 0.0 | 0.0 | 0.00 | 0.00 | 0.00 | 90 | 1022.8 |
| 20260509133348 | 49 | 153 | 0.0 | 0.0 | 0.00 | 0.00 | 0.00 | 91 | 1022.7 |
| 20260509132845 | 48 | 153 | 0.0 | 0.0 | 0.00 | 0.00 | 0.00 | 92 | 1022.8 |
| 20260509132341 | 47 | 154 | 0.0 | 0.0 | 0.00 | 0.00 | 0.00 | 92 | 1022.8 |
| 20260509131839 | 47 | 154 | 0.0 | 0.0 | 0.00 | 0.00 | 0.00 | 92 | 1022.8 |
| 20260509131358 | 47 | 154 | 0.0 | 0.0 | 0.00 | 0.00 | 0.00 | 93 | 1022.8 |
| 20260509130851 | 47 | 146 | 0.0 | 1.0 | 0.00 | 0.00 | 0.00 | 92 | 1022.8 |
| 20260509130408 | 46 | 108 | 0.0 | 1.0 | 0.00 | 0.00 | 0.00 | 92 | 1022.7 |
| 20260509125843 | 46 | 109 | 0.0 | 1.0 | 0.00 | 0.00 | 0.00 | 92 | 1022.8 |
| 20260509125403 | 46 | 109 | 0.0 | 1.0 | 0.00 | 0.00 | 0.00 | 92 | 1022.7 |
| 20260509124832 | 46 | 81 | 0.0 | 0.0 | 0.00 | 0.00 | 0.00 | 92 | 1022.9 |
| 20260509124357 | 46 | 79 | 0.0 | 0.0 | 0.00 | 0.00 | 0.00 | 91 | 1022.9 |
| 20260509123853 | 47 | 79 | 0.0 | 0.0 | 0.00 | 0.00 | 0.00 | 92 | 1022.9 |
| 20260509123350 | 47 | 79 | 0.0 | 0.0 | 0.00 | 0.00 | 0.00 | 92 | 1023.0 |
| 20260509122848 | 47 | 79 | 0.0 | 0.0 | 0.00 | 0.00 | 0.00 | 92 | 1023.0 |
| 20260509122347 | 47 | 79 | 0.0 | 0.0 | 0.00 | 0.00 | 0.00 | 92 | 1022.9 |
| 20260509121840 | 47 | 79 | 0.0 | 0.0 | 0.00 | 0.00 | 0.00 | 91 | 1022.9 |
| 20260509121337 | 47 | 79 | 0.0 | 1.0 | 0.00 | 0.00 | 0.00 | 92 | 1022.8 |
| 20260509120857 | 47 | 81 | 0.0 | 1.0 | 0.00 | 0.00 | 0.00 | 92 | 1022.9 |
| 20260509120333 | 47 | 98 | 0.0 | 0.0 | 0.00 | 0.00 | 0.00 | 91 | 1022.9 |
| 20260509115909 | 47 | 98 | 0.0 | 0.0 | 0.00 | 0.00 | 0.00 | 91 | 1022.9 |
| 20260509115344 | 47 | 98 | 0.0 | 0.0 | 0.00 | 0.00 | 0.00 | 91 | 1023.0 |
| 20260509114910 | 48 | 98 | 0.0 | 1.0 | 0.00 | 0.00 | 0.00 | 91 | 1023.0 |
| 20260509114346 | 48 | 98 | 0.0 | 1.0 | 0.00 | 0.00 | 0.00 | 91 | 1022.9 |
| 20260509113844 | 48 | 96 | 0.0 | 1.0 | 0.00 | 0.00 | 0.00 | 91 | 1023.0 |
| 20260509113339 | 48 | 77 | 0.0 | 0.0 | 0.00 | 0.00 | 0.00 | 91 | 1023.1 |
| 20260509112836 | 48 | 77 | 0.0 | 0.0 | 0.00 | 0.00 | 0.00 | 91 | 1023.2 |
| 20260509112336 | 48 | 77 | 0.0 | 0.0 | 0.00 | 0.00 | 0.00 | 91 | 1023.2 |
| 20260509111833 | 48 | 77 | 0.0 | 0.0 | 0.00 | 0.00 | 0.00 | 91 | 1023.4 |
| 20260509111350 | 48 | 77 | 0.0 | 0.0 | 0.00 | 0.00 | 0.00 | 91 | 1023.4 |
| 20260509110848 | 48 | 77 | 0.0 | 0.0 | 0.00 | 0.00 | 0.00 | 90 | 1023.4 |
| 20260509110414 | 49 | 77 | 0.0 | 0.0 | 0.00 | 0.00 | 0.00 | 90 | 1023.6 |
| 20260509105851 | 49 | 77 | 0.0 | 0.0 | 0.00 | 0.00 | 0.00 | 90 | 1023.6 |
| 20260509105348 | 49 | 77 | 0.0 | 0.0 | 0.00 | 0.00 | 0.00 | 90 | 1023.6 |
| 20260509104846 | 49 | 77 | 0.0 | 0.0 | 0.00 | 0.00 | 0.00 | 89 | 1023.6 |
| 20260509104401 | 49 | 77 | 0.0 | 0.0 | 0.00 | 0.00 | 0.00 | 89 | 1023.5 |
| 20260509103848 | 49 | 77 | 0.0 | 0.0 | 0.00 | 0.00 | 0.00 | 89 | 1023.4 |
| 20260509103343 | 49 | 77 | 0.0 | 0.0 | 0.00 | 0.00 | 0.00 | 89 | 1023.4 |
| 20260509102840 | 50 | 76 | 0.0 | 0.0 | 0.00 | 0.00 | 0.00 | 89 | 1023.4 |
| 20260509102332 | 50 | 77 | 0.0 | 0.0 | 0.00 | 0.00 | 0.00 | 89 | 1023.3 |
| 20260509101859 | 50 | 77 | 0.0 | 0.0 | 0.00 | 0.00 | 0.00 | 88 | 1023.4 |
| 20260509101355 | 50 | 77 | 0.0 | 1.0 | 0.00 | 0.00 | 0.00 | 88 | 1023.4 |
| 20260509100911 | 50 | 70 | 0.0 | 1.0 | 0.00 | 0.00 | 0.00 | 88 | 1023.4 |
| 20260509100354 | 50 | 30 | 0.0 | 0.0 | 0.00 | 0.00 | 0.00 | 88 | 1023.4 |
| 20260509095848 | 50 | 29 | 0.0 | 0.0 | 0.00 | 0.00 | 0.00 | 87 | 1023.5 |
| 20260509095344 | 51 | 30 | 0.0 | 0.0 | 0.00 | 0.00 | 0.00 | 87 | 1023.5 |
| 20260509094911 | 51 | 29 | 0.0 | 0.0 | 0.00 | 0.00 | 0.00 | 86 | 1023.5 |
| 20260509094348 | 51 | 29 | 0.0 | 0.0 | 0.00 | 0.00 | 0.00 | 87 | 1023.6 |
| 20260509093845 | 51 | 29 | 0.0 | 0.0 | 0.00 | 0.00 | 0.00 | 86 | 1023.6 |
| 20260509093344 | 51 | 30 | 0.0 | 0.0 | 0.00 | 0.00 | 0.00 | 86 | 1023.7 |
| 20260509092841 | 52 | 30 | 0.0 | 0.0 | 0.00 | 0.00 | 0.00 | 86 | 1023.6 |
| 20260509092400 | 52 | 29 | 0.0 | 0.0 | 0.00 | 0.00 | 0.00 | 85 | 1023.7 |
| 20260509091836 | 52 | 29 | 0.0 | 0.0 | 0.00 | 0.00 | 0.00 | 84 | 1023.8 |
| 20260509091332 | 53 | 29 | 0.0 | 1.0 | 0.00 | 0.00 | 0.00 | 84 | 1023.9 |
| 20260509090845 | 53 | 30 | 0.0 | 1.0 | 0.00 | 0.00 | 0.00 | 84 | 1023.8 |
| 20260509090342 | 53 | 12 | 0.0 | 1.0 | 0.00 | 0.00 | 0.00 | 83 | 1023.9 |
| 20260509085910 | 53 | 14 | 0.0 | 1.0 | 0.00 | 0.00 | 0.00 | 83 | 1023.9 |
| 20260509084832 | 54 | 65 | 0.0 | 1.0 | 0.00 | 0.00 | 0.00 | 82 | 1024.1 |
| 20260509084348 | 54 | 66 | 0.0 | 1.0 | 0.00 | 0.00 | 0.00 | 81 | 1024.1 |
| 20260509083845 | 55 | 89 | 0.0 | 1.0 | 0.00 | 0.00 | 0.00 | 80 | 1024.1 |
| 20260509083343 | 55 | 72 | 0.0 | 3.0 | 0.00 | 0.00 | 0.00 | 80 | 1024.1 |
| 20260509082841 | 55 | 52 | 1.0 | 3.0 | 0.00 | 0.00 | 0.00 | 80 | 1024.1 |
| 20260509082335 | 55 | 53 | 0.0 | 4.0 | 0.00 | 0.00 | 0.00 | 79 | 1024.2 |
| 20260509081832 | 55 | 61 | 1.0 | 4.0 | 0.00 | 0.00 | 0.00 | 79 | 1024.3 |
| 20260509081349 | 55 | 60 | 1.0 | 3.0 | 0.00 | 0.00 | 0.00 | 80 | 1024.4 |
| 20260509080846 | 55 | 274 | 0.0 | 0.0 | 0.00 | 0.00 | 0.00 | 79 | 1024.4 |
| 20260509080413 | 55 | 273 | 0.0 | 1.0 | 0.00 | 0.00 | 0.00 | 79 | 1024.4 |
| 20260509075849 | 55 | 1 | 0.0 | 0.0 | 0.00 | 0.00 | 0.00 | 78 | 1024.4 |
| 20260509075348 | 56 | 1 | 0.0 | 0.0 | 0.00 | 0.00 | 0.00 | 78 | 1024.4 |
| 20260509074906 | 56 | 1 | 0.0 | 0.0 | 0.00 | 0.00 | 0.00 | 78 | 1024.3 |
| 20260509074342 | 56 | 1 | 0.0 | 3.0 | 0.00 | 0.00 | 0.00 | 77 | 1024.4 |
| 20260509073849 | 56 | 1 | 0.0 | 3.0 | 0.00 | 0.00 | 0.00 | 77 | 1024.3 |
| 20260509073401 | 56 | 74 | 0.0 | 0.0 | 0.00 | 0.00 | 0.00 | 77 | 1024.4 |
| 20260509072837 | 56 | 74 | 0.0 | 0.0 | 0.00 | 0.00 | 0.00 | 77 | 1024.4 |
| 20260509072336 | 56 | 74 | 0.0 | 0.0 | 0.00 | 0.00 | 0.00 | 77 | 1024.3 |
| 20260509071855 | 57 | 74 | 0.0 | 0.0 | 0.00 | 0.00 | 0.00 | 76 | 1024.4 |
| 20260509071420 | 57 | 73 | 0.0 | 0.0 | 0.00 | 0.00 | 0.00 | 75 | 1024.3 |
| 20260509070857 | 57 | 75 | 0.0 | 0.0 | 0.00 | 0.00 | 0.00 | 75 | 1024.4 |
| 20260509070334 | 58 | 226 | 0.0 | 0.0 | 0.00 | 0.00 | 0.00 | 74 | 1024.3 |
| 20260509065851 | 58 | 248 | 0.0 | 1.0 | 0.00 | 0.00 | 0.00 | 74 | 1024.3 |
| 20260509065344 | 58 | 247 | 0.0 | 1.0 | 0.00 | 0.00 | 0.00 | 74 | 1024.4 |
| 20260509064849 | 58 | 264 | 0.0 | 0.0 | 0.00 | 0.00 | 0.00 | 74 | 1024.4 |
| 20260509064346 | 58 | 264 | 0.0 | 1.0 | 0.00 | 0.00 | 0.00 | 73 | 1024.3 |
| 20260509063902 | 58 | 265 | 0.0 | 2.0 | 0.00 | 0.00 | 0.00 | 73 | 1024.3 |
| 20260509063341 | 58 | 266 | 1.0 | 2.0 | 0.00 | 0.00 | 0.00 | 73 | 1024.3 |
| 20260509062839 | 59 | 213 | 0.0 | 3.0 | 0.00 | 0.00 | 0.00 | 72 | 1024.2 |
| 20260509062336 | 59 | 219 | 0.0 | 3.0 | 0.00 | 0.00 | 0.00 | 72 | 1024.3 |
| 20260509061852 | 59 | 262 | 0.0 | 1.0 | 0.00 | 0.00 | 0.00 | 72 | 1024.2 |
| 20260509061357 | 59 | 238 | 0.0 | 1.0 | 0.00 | 0.00 | 0.00 | 72 | 1024.2 |
| 20260509060849 | 59 | 236 | 0.0 | 3.0 | 0.00 | 0.00 | 0.00 | 71 | 1024.2 |
| 20260509060414 | 59 | 248 | 2.0 | 3.0 | 0.00 | 0.00 | 0.00 | 71 | 1024.2 |
| 20260509055850 | 59 | 214 | 0.0 | 0.0 | 0.00 | 0.00 | 0.00 | 71 | 1024.3 |
| 20260509055345 | 60 | 214 | 0.0 | 1.0 | 0.00 | 0.00 | 0.00 | 70 | 1024.1 |
| 20260509054841 | 60 | 214 | 0.0 | 1.0 | 0.00 | 0.00 | 0.00 | 70 | 1024.1 |
| 20260509054339 | 60 | 233 | 0.0 | 1.0 | 0.00 | 0.00 | 0.00 | 69 | 1024.1 |
| 20260509053836 | 60 | 250 | 0.0 | 3.0 | 0.00 | 0.00 | 0.00 | 68 | 1024.1 |
| 20260509053332 | 61 | 257 | 0.0 | 4.0 | 0.00 | 0.00 | 0.00 | 68 | 1024.1 |
| 20260509052847 | 61 | 232 | 1.0 | 2.0 | 0.00 | 0.00 | 0.00 | 68 | 1024.1 |
| 20260509052340 | 61 | 356 | 0.0 | 2.0 | 0.00 | 0.00 | 0.00 | 67 | 1024.0 |
| 20260509051840 | 61 | 103 | 0.0 | 3.0 | 0.00 | 0.00 | 0.00 | 66 | 1024.1 |
| 20260509051338 | 62 | 58 | 1.0 | 7.0 | 0.00 | 0.00 | 0.00 | 66 | 1023.9 |
| 20260509050836 | 62 | 230 | 1.0 | 7.0 | 0.00 | 0.00 | 0.00 | 66 | 1023.9 |
| 20260509050347 | 62 | 123 | 0.0 | 1.0 | 0.00 | 0.00 | 0.00 | 65 | 1023.9 |
| 20260509045854 | 62 | 231 | 0.0 | 1.0 | 0.00 | 0.00 | 0.00 | 65 | 1023.9 |
| 20260509045350 | 63 | 232 | 0.0 | 1.0 | 0.00 | 0.00 | 0.00 | 64 | 1023.7 |
| 20260509044846 | 63 | 236 | 0.0 | 0.0 | 0.00 | 0.00 | 0.00 | 63 | 1023.8 |
| 20260509044343 | 63 | 236 | 0.0 | 1.0 | 0.00 | 0.00 | 0.00 | 63 | 1023.7 |
| 20260509043839 | 63 | 200 | 0.0 | 1.0 | 0.00 | 0.00 | 0.00 | 63 | 1023.6 |
| 20260509043340 | 63 | 285 | 0.0 | 1.0 | 0.00 | 0.00 | 0.00 | 62 | 1023.5 |
| 20260509042832 | 64 | 285 | 0.0 | 1.0 | 0.00 | 0.00 | 0.00 | 62 | 1023.6 |
| 20260509042348 | 64 | 285 | 0.0 | 1.0 | 0.00 | 0.00 | 0.00 | 62 | 1023.6 |
| 20260509041852 | 64 | 136 | 0.0 | 3.0 | 0.00 | 0.00 | 0.00 | 61 | 1023.5 |
| 20260509041349 | 64 | 76 | 0.0 | 3.0 | 0.00 | 0.00 | 0.00 | 61 | 1023.5 |
| 20260509040906 | 64 | 92 | 0.0 | 1.0 | 0.00 | 0.00 | 0.00 | 61 | 1023.4 |
| 20260509040342 | 64 | 295 | 0.0 | 1.0 | 0.00 | 0.00 | 0.00 | 61 | 1023.4 |
| 20260509035839 | 64 | 297 | 0.0 | 1.0 | 0.00 | 0.00 | 0.00 | 60 | 1023.3 |
| 20260509035336 | 64 | 263 | 0.0 | 3.0 | 0.00 | 0.00 | 0.00 | 60 | 1023.3 |
| 20260509034834 | 64 | 307 | 1.0 | 4.0 | 0.00 | 0.00 | 0.00 | 60 | 1023.2 |
| 20260509034331 | 64 | 78 | 2.0 | 4.0 | 0.00 | 0.00 | 0.00 | 59 | 1023.2 |
| 20260509033914 | 64 | 256 | 0.0 | 4.0 | 0.00 | 0.00 | 0.00 | 59 | 1023.1 |
| 20260509033349 | 65 | 20 | 0.0 | 4.0 | 0.00 | 0.00 | 0.00 | 59 | 1023.1 |
| 20260509032847 | 65 | 264 | 1.0 | 4.0 | 0.00 | 0.00 | 0.00 | 59 | 1023.1 |
| 20260509032345 | 65 | 280 | 2.0 | 3.0 | 0.00 | 0.00 | 0.00 | 58 | 1022.9 |
| 20260509031842 | 65 | 317 | 0.0 | 3.0 | 0.00 | 0.00 | 0.00 | 60 | 1022.9 |
| 20260509031331 | 65 | 84 | 1.0 | 2.0 | 0.00 | 0.00 | 0.00 | 58 | 1022.8 |
| 20260509030858 | 66 | 229 | 0.0 | 2.0 | 0.00 | 0.00 | 0.00 | 58 | 1022.8 |
| 20260509030335 | 66 | 228 | 0.0 | 2.0 | 0.00 | 0.00 | 0.00 | 57 | 1022.8 |
| 20260509025832 | 66 | 257 | 0.0 | 2.0 | 0.00 | 0.00 | 0.00 | 57 | 1022.8 |
| 20260509025405 | 66 | 224 | 0.0 | 2.0 | 0.00 | 0.00 | 0.00 | 57 | 1022.8 |
| 20260509024841 | 66 | 252 | 0.0 | 1.0 | 0.00 | 0.00 | 0.00 | 56 | 1022.6 |
| 20260509024407 | 67 | 231 | 0.0 | 2.0 | 0.00 | 0.00 | 0.00 | 54 | 1022.6 |
| 20260509023844 | 67 | 158 | 1.0 | 2.0 | 0.00 | 0.00 | 0.00 | 54 | 1022.6 |
| 20260509023404 | 67 | 254 | 0.0 | 2.0 | 0.00 | 0.00 | 0.00 | 53 | 1022.6 |
| 20260509022841 | 67 | 235 | 0.0 | 2.0 | 0.00 | 0.00 | 0.00 | 53 | 1022.5 |
| 20260509022332 | 67 | 245 | 0.0 | 2.0 | 0.00 | 0.00 | 0.00 | 53 | 1022.5 |
| 20260509021857 | 67 | 245 | 0.0 | 2.0 | 0.00 | 0.00 | 0.00 | 53 | 1022.5 |
| 20260509021353 | 67 | 281 | 0.0 | 1.0 | 0.00 | 0.00 | 0.00 | 52 | 1022.6 |
| 20260509020907 | 68 | 255 | 0.0 | 1.0 | 0.00 | 0.00 | 0.00 | 52 | 1022.6 |
| 20260509020343 | 68 | 233 | 0.0 | 2.0 | 0.00 | 0.00 | 0.00 | 51 | 1022.6 |
| 20260509015909 | 68 | 237 | 1.0 | 6.0 | 0.00 | 0.00 | 0.00 | 51 | 1022.6 |
| 20260509015345 | 68 | 239 | 0.0 | 6.0 | 0.00 | 0.00 | 0.00 | 51 | 1022.6 |
| 20260509014841 | 68 | 298 | 0.0 | 3.0 | 0.00 | 0.00 | 0.00 | 51 | 1022.7 |
| 20260509014339 | 68 | 267 | 1.0 | 2.0 | 0.00 | 0.00 | 0.00 | 50 | 1022.7 |
| 20260509013858 | 69 | 273 | 1.0 | 3.0 | 0.00 | 0.00 | 0.00 | 50 | 1022.6 |
| 20260509013355 | 69 | 84 | 0.0 | 3.0 | 0.00 | 0.00 | 0.00 | 50 | 1022.6 |
| 20260509012852 | 70 | 18 | 0.0 | 6.0 | 0.00 | 0.00 | 0.00 | 50 | 1022.6 |
| 20260509012349 | 70 | 274 | 2.0 | 6.0 | 0.00 | 0.00 | 0.00 | 49 | 1022.7 |
| 20260509011841 | 70 | 243 | 2.0 | 4.0 | 0.00 | 0.00 | 0.00 | 48 | 1022.8 |
| 20260509011407 | 71 | 278 | 0.0 | 2.0 | 0.00 | 0.00 | 0.00 | 50 | 1022.8 |
| 20260509010844 | 70 | 142 | 1.0 | 4.0 | 0.00 | 0.00 | 0.00 | 50 | 1022.8 |
| 20260509010343 | 70 | 291 | 1.0 | 4.0 | 0.00 | 0.00 | 0.00 | 48 | 1022.8 |
| 20260509005840 | 71 | 237 | 1.0 | 5.0 | 0.00 | 0.00 | 0.00 | 48 | 1022.8 |
| 20260509005401 | 71 | 160 | 2.0 | 5.0 | 0.00 | 0.00 | 0.00 | 50 | 1022.9 |
| 20260509004838 | 70 | 264 | 1.0 | 3.0 | 0.00 | 0.00 | 0.00 | 50 | 1022.9 |
| 20260509004337 | 70 | 240 | 2.0 | 5.0 | 0.00 | 0.00 | 0.00 | 50 | 1022.9 |
| 20260509003835 | 70 | 343 | 2.0 | 5.0 | 0.00 | 0.00 | 0.00 | 51 | 1023.0 |
| 20260509003332 | 69 | 236 | 1.0 | 4.0 | 0.00 | 0.00 | 0.00 | 50 | 1022.9 |
| 20260509002844 | 70 | 264 | 3.0 | 4.0 | 0.00 | 0.00 | 0.00 | 49 | 1023.0 |
| 20260509002411 | 70 | 296 | 0.0 | 2.0 | 0.00 | 0.00 | 0.00 | 50 | 1023.0 |